Hourly Data Report for October 22, 2014

All times are specified in Local Standard Time (LST). Add 1 hour to adjust for Daylight Saving Time where and when it is observed.

BAKER LAKE A
NUNAVUT

64°17'56.000" N
96°04'40.000" W
18.60 m
2300503
71926
YBK

Download Data

Hourly Data (October 2014)
Hourly Data Report for October 22, 2014
Temp Definition
°C
Dew Point Temp Definition
°C
Rel Hum Definition
%
Wind Dir Definition
10's deg

Wind Spd Definition
km/h
Visibility Definition
km
Stn Press Definition
kPa
Hmdx Definition


Wind Chill Definition


Weather Definition


TIME
00:00 Legend Double Dagger 1.1 0.2 94 30 21 24.1 99.77     Cloudy
01:00 Legend Double Dagger 0.9 -0.1 93 31 23 24.1 99.84     LegendNANA
02:00 Legend Double Dagger -0.8 -1.8 93 31 33 24.1 99.94   -8 LegendNANA
03:00 Legend Double Dagger -3.3 -4.3 93 32 36 24.1 100.04   -11 Mainly Clear
04:00 Legend Double Dagger -5.0 -5.5 96 33 30 24.1 100.18   -13 LegendNANA
05:00 Legend Double Dagger -5.8 -6.3 96 32 32 24.1 100.25   -14 LegendNANA
06:00 Legend Double Dagger -6.0 -6.8 94 33 22 24.1 100.36   -13 Mostly Cloudy
07:00 Legend Double Dagger -6.5 -7.3 94 33 26 16.1 100.41   -14 LegendNANA
08:00 Legend Double Dagger -5.4 -6.2 94 33 26 24.1 100.45   -13 LegendNANA
09:00 Legend Double Dagger -5.3 -7.0 88 31 27 32.2 100.54   -13 Mainly Clear
10:00 Legend Double Dagger -4.9 -6.7 87 31 28 32.2 100.59   -13 LegendNANA
11:00 Legend Double Dagger -3.1 -5.1 86 35 30 32.2 100.71   -11 LegendNANA
12:00 Legend Double Dagger -3.0 -5.5 83 36 21 32.2 100.86   -9 Mostly Cloudy
13:00 Legend Double Dagger -3.8 -6.4 82 36 21 32.2 100.95   -10 LegendNANA
14:00 Legend Double Dagger -4.5 -6.8 84 36 20 32.2 101.05   -11 LegendNANA
15:00 Legend Double Dagger -4.4 -6.1 88 1 22 32.2 101.13   -11 Mostly Cloudy
16:00 Legend Double Dagger -4.6 -6.6 86 1 18 24.1 101.19   -11 LegendNANA
17:00 Legend Double Dagger -5.3 -7.6 84 2 26 24.1 101.30   -13 LegendNANA
18:00 Legend Double Dagger -5.9 -8.5 82 2 30 24.1 101.41   -14 Cloudy
19:00 Legend Double Dagger -6.2 -9.0 81 3 26 24.1 101.49   -14 LegendNANA
20:00 Legend Double Dagger -6.7 -9.3 82 4 24 24.1 101.60   -14 LegendNANA
21:00 Legend Double Dagger -7.1 -9.5 83 4 22 24.1 101.69   -15 Cloudy
22:00 Legend Double Dagger -7.4 -10.1 81 4 21 24.1 101.76   -15 LegendNANA
23:00 Legend Double Dagger -7.5 -10.5 79 5 27 24.1 101.81   -16 LegendNANA

Notes on Data Quality.

Legend

  • E = Estimated
  • M = Missing
  • NA = Not Available
  • ‡ = Partner data that is not subject to review by the National Climate Archives
Date modified: